Location: Rostock
(54.0884°N, 12.1234°E)
Time: 00:18:57
(UTC+01:00)

N. Korean satellite - Visible Passes

Search period start: 19 November 2017 00:00
Search period end: 29 November 2017 00:00
Orbit: 460 x 515 km, 97.2° (Epoch: 17 November)

Date Brightness Start Highest point End Pass type
(mag) Time Alt. Az. Time Alt. Az. Time Alt. Az.
19 Nov 10.0 05:55:01 10° NE 05:57:00 14° E 05:58:59 10° ESE visible
19 Nov 6.9 18:09:49 10° S 18:13:19 66° WSW 18:16:55 10° NNW visible
20 Nov 7.2 07:03:46 10° NNE 07:07:29 66° ESE 07:11:14 10° S visible
20 Nov 6.4 17:46:20 10° SSE 17:49:50 69° ENE 17:53:26 10° N visible
20 Nov 9.9 19:22:07 10° WSW 19:23:50 13° W 19:25:34 10° WNW visible
21 Nov 8.4 06:40:26 10° NNE 06:43:56 37° E 06:47:27 10° SSE visible
21 Nov 7.0 17:23:06 10° SE 17:26:25 39° ENE 17:29:48 10° N visible
21 Nov 9.1 18:57:19 10° SW 19:00:06 22° W 19:02:58 10° NW visible
22 Nov 9.4 06:17:17 10° NE 06:20:18 23° E 06:23:20 10° SE visible
22 Nov 7.6 17:00:10 10° ESE 17:03:05 24° ENE 17:06:02 10° N visible
22 Nov 8.1 18:33:09 10° SSW 18:36:27 36° W 18:39:50 10° NNW visible
23 Nov 10.0 05:54:35 10° NE 05:56:35 14° E 05:58:37 10° ESE visible
23 Nov 6.9 18:09:20 10° S 18:12:52 66° WSW 18:16:31 10° NNW visible
24 Nov 7.2 07:03:19 10° NNE 07:07:04 66° ESE 07:10:49 10° S visible
24 Nov 6.4 17:45:49 10° SSE 17:49:22 69° ENE 17:53:00 10° N visible
24 Nov 9.9 19:21:35 10° WSW 19:23:22 13° W 19:25:11 10° WNW visible
25 Nov 8.4 06:39:57 10° NNE 06:43:30 37° E 06:47:01 10° SSE visible
25 Nov 7.0 17:22:35 10° SE 17:25:56 39° ENE 17:29:22 10° N visible
25 Nov 9.1 18:56:46 10° SW 18:59:37 22° W 19:02:32 10° NW visible
26 Nov 9.4 06:16:48 10° NE 06:19:50 23° E 06:22:52 10° SE visible
26 Nov 7.7 16:59:37 10° ESE 17:02:35 24° ENE 17:05:35 10° N visible
26 Nov 8.1 18:32:36 10° SSW 18:35:57 37° W 18:39:23 10° NNW visible
27 Nov 10.0 05:54:04 10° NE 05:56:07 14° E 05:58:08 10° ESE visible
27 Nov 8.2 16:37:03 10° E 16:39:17 16° ENE 16:41:32 10° NNE visible
27 Nov 6.9 18:08:47 10° S 18:12:21 67° WSW 18:16:02 10° NNW visible
28 Nov 7.2 07:02:47 10° NNE 07:06:34 65° ESE 07:10:19 10° S visible
28 Nov 6.5 17:45:15 10° SSE 17:48:50 69° ENE 17:52:30 10° N visible
28 Nov 9.9 19:20:57 10° WSW 19:22:49 14° W 19:24:43 10° NW visible
